When you browse on this site, cookies collect data to enhance your experience and personalize the content and advertising you see.
Visit our Privacy Policy to learn more. By continuing to use the site, you agree to this use of cookies and data.
  • In Latvia
  • List of Countries
  • For 7 days
  • Water Temperature
  • Weather Map
  • Weather Widgets
  • user-avatar
    Login

    Hourly Weather Ischgl

    Today, 20 August, Tuesday

    Time Temperature Precipitation Wind Pressure Humidity
    00:00 +8°C° 0.2 mm 0 mps 579 mmHg 96%
    01:00 +8°C° 0 mm 0 mps 579 mmHg 97%
    02:00 +8°C° 0.3 mm 0 mps 579 mmHg 96%
    03:00 +8°C° 0.3 mm 0 mps 579 mmHg 96%
    04:00 +8°C° 0.3 mm 0 mps 579 mmHg 95%
    05:00 +8°C° 0.2 mm 0 mps 579 mmHg 95%
    06:00 +10°C° 0.2 mm 1 mps 579 mmHg 94%
    07:00 +10°C° 0 mm 1 mps 579 mmHg 93%
    08:00 +11°C° 0.4 mm 1 mps 580 mmHg 89%
    09:00 +12°C° 0.4 mm 1 mps 580 mmHg 85%
    10:00 +12°C° 0.4 mm 2 mps 580 mmHg 81%
    11:00 +13°C° 0.5 mm 2 mps 581 mmHg 79%
    12:00 +13°C° 0.5 mm 2 mps 581 mmHg 77%
    13:00 +13°C° 0 mm 3 mps 582 mmHg 74%
    14:00 +13°C° 0.6 mm 3 mps 581 mmHg 76%
    15:00 +13°C° 0.6 mm 2 mps 581 mmHg 78%
    16:00 +13°C° 0.6 mm 2 mps 581 mmHg 79%
    17:00 +10°C° 0.6 mm 2 mps 580 mmHg 84%
    18:00 +9°C° 0.6 mm 2 mps 580 mmHg 89%
    19:00 +8°C° 0.6 mm 2 mps 580 mmHg 94%
    20:00 +7°C° 0.6 mm 2 mps 580 mmHg 94%
    21:00 +6°C° 0.6 mm 2 mps 580 mmHg 95%
    22:00 +6°C° 0.6 mm 2 mps 580 mmHg 96%
    23:00 +5°C° 2 mm 2 mps 580 mmHg 96%

    Tomorrow, 21 August, Wednesday

    Time Temperature Precipitation Wind Pressure Humidity
    00:00 +5°C° 2 mm 2 mps 579 mmHg 97%
    01:00 +4°C° 2 mm 2 mps 579 mmHg 97%
    02:00 +4°C° 0.4 mm 2 mps 579 mmHg 97%
    03:00 +4°C° 0.4 mm 2 mps 579 mmHg 96%
    04:00 +5°C° 0.4 mm 1 mps 579 mmHg 96%
    05:00 +5°C° 0.3 mm 1 mps 579 mmHg 95%
    06:00 +5°C° 0.3 mm 1 mps 579 mmHg 94%
    07:00 +6°C° 0.3 mm 1 mps 579 mmHg 94%
    08:00 +7°C° 0 mm 1 mps 580 mmHg 89%
    09:00 +9°C° 0 mm 1 mps 581 mmHg 85%
    10:00 +10°C° 0 mm 1 mps 581 mmHg 80%
    11:00 +11°C° 0.3 mm 1 mps 582 mmHg 77%
    12:00 +12°C° 0.3 mm 1 mps 582 mmHg 74%
    13:00 +13°C° 0.3 mm 1 mps 582 mmHg 71%
    14:00 +13°C° 0.6 mm 1 mps 582 mmHg 72%
    15:00 +13°C° 0.6 mm 1 mps 582 mmHg 73%
    16:00 +13°C° 0.6 mm 1 mps 582 mmHg 74%
    17:00 +12°C° 0.5 mm 1 mps 581 mmHg 80%
    18:00 +10°C° 0.5 mm 1 mps 581 mmHg 86%
    19:00 +9°C° 0.5 mm 1 mps 581 mmHg 91%
    20:00 +9°C° 0.2 mm 1 mps 580 mmHg 92%
    21:00 +8°C° 0.2 mm 1 mps 580 mmHg 92%
    22:00 +7°C° 0.2 mm 1 mps 580 mmHg 92%
    23:00 +7°C° 0 mm 1 mps 580 mmHg 91%

    Day after tomorrow, 22 August, Thursday

    Time Temperature Precipitation Wind Pressure Humidity
    00:00 +7°C° 0 mm 1 mps 580 mmHg 90%
    01:00 +8°C° 0 mm 1 mps 580 mmHg 88%
    02:00 +7°C° 0 mm 1 mps 580 mmHg 88%
    03:00 +7°C° 0 mm 1 mps 579 mmHg 87%
    04:00 +7°C° 0 mm 1 mps 579 mmHg 87%
    05:00 +8°C° 0 mm 1 mps 580 mmHg 84%
    06:00 +9°C° 0 mm 1 mps 580 mmHg 82%
    07:00 +9°C° 0 mm 0 mps 581 mmHg 79%
    08:00 +11°C° 0 mm 0 mps 582 mmHg 72%
    09:00 +12°C° 0 mm 0 mps 583 mmHg 64%
    10:00 +14°C° 0 mm 0 mps 584 mmHg 57%
    11:00 +16°C° 0.2 mm 1 mps 584 mmHg 55%
    12:00 +16°C° 0.2 mm 1 mps 584 mmHg 53%
    13:00 +18°C° 0.2 mm 1 mps 584 mmHg 50%
    14:00 +16°C° 1.1 mm 1 mps 584 mmHg 56%
    15:00 +16°C° 1.1 mm 1 mps 583 mmHg 61%
    16:00 +15°C° 1.1 mm 1 mps 583 mmHg 66%
    17:00 +14°C° 1 mm 1 mps 582 mmHg 73%
    18:00 +13°C° 1 mm 1 mps 582 mmHg 80%
    19:00 +11°C° 1 mm 1 mps 581 mmHg 87%
    20:00 +10°C° 0.2 mm 1 mps 581 mmHg 88%
    21:00 +8°C° 0.2 mm 0 mps 581 mmHg 89%
    22:00 +7°C° 0.2 mm 0 mps 581 mmHg 91%
    23:00 +7°C° 0 mm 0 mps 580 mmHg 90%

    23 August, Friday

    Time Temperature Precipitation Wind Pressure Humidity
    00:00 +7°C° 0 mm 0 mps 580 mmHg 89%
    01:00 +8°C° 0 mm 1 mps 580 mmHg 89%
    02:00 +8°C° 0 mm 1 mps 580 mmHg 88%
    03:00 +7°C° 0 mm 1 mps 580 mmHg 87%
    04:00 +7°C° 0 mm 1 mps 579 mmHg 86%
    05:00 +8°C° 0 mm 1 mps 580 mmHg 84%
    06:00 +10°C° 0 mm 1 mps 581 mmHg 81%
    07:00 +11°C° 0 mm 1 mps 581 mmHg 79%
    08:00 +12°C° 0 mm 1 mps 582 mmHg 72%
    09:00 +14°C° 0 mm 1 mps 583 mmHg 64%
    10:00 +15°C° 0 mm 1 mps 584 mmHg 57%
    11:00 +16°C° 0.6 mm 1 mps 584 mmHg 57%
    12:00 +16°C° 0.6 mm 1 mps 584 mmHg 56%
    13:00 +18°C° 0.6 mm 1 mps 584 mmHg 56%
    14:00 +16°C° 1.4 mm 1 mps 583 mmHg 59%
    15:00 +16°C° 1.4 mm 1 mps 583 mmHg 63%
    16:00 +15°C° 1.4 mm 1 mps 582 mmHg 67%
    17:00 +14°C° 0.7 mm 1 mps 582 mmHg 72%
    18:00 +11°C° 0.7 mm 0 mps 581 mmHg 78%
    19:00 +10°C° 0.7 mm 0 mps 580 mmHg 84%
    20:00 +9°C° 0.2 mm 0 mps 580 mmHg 84%
    21:00 +9°C° 0.2 mm 1 mps 580 mmHg 84%
    22:00 +9°C° 0.2 mm 1 mps 580 mmHg 84%
    23:00 +8°C° 0 mm 1 mps 580 mmHg 84%

    24 August, Saturday

    Time Temperature Precipitation Wind Pressure Humidity
    00:00 +8°C° 0 mm 1 mps 579 mmHg 83%
    01:00 +8°C° 0 mm 1 mps 579 mmHg 83%
    02:00 +8°C° 0 mm 1 mps 579 mmHg 83%
    03:00 +8°C° 0 mm 1 mps 579 mmHg 82%
    04:00 +7°C° 0 mm 1 mps 578 mmHg 82%
    05:00 +8°C° 0 mm 1 mps 579 mmHg 80%
    06:00 +10°C° 0 mm 1 mps 580 mmHg 78%
    07:00 +11°C° 0 mm 1 mps 580 mmHg 76%
    08:00 +12°C° 0 mm 1 mps 581 mmHg 67%
    09:00 +14°C° 0 mm 1 mps 582 mmHg 58%
    10:00 +16°C° 0 mm 1 mps 583 mmHg 49%
    11:00 +18°C° 0.1 mm 1 mps 583 mmHg 47%
    12:00 +19°C° 0.1 mm 1 mps 583 mmHg 45%
    13:00 +19°C° 0.1 mm 1 mps 583 mmHg 43%
    14:00 +18°C° 0.7 mm 1 mps 583 mmHg 51%
    15:00 +16°C° 0.7 mm 1 mps 582 mmHg 59%
    16:00 +15°C° 0.7 mm 2 mps 581 mmHg 67%
    17:00 +14°C° 0.7 mm 1 mps 581 mmHg 73%
    18:00 +12°C° 0.7 mm 1 mps 580 mmHg 78%
    19:00 +10°C° 0.7 mm 0 mps 579 mmHg 84%
    20:00 +9°C° 0.2 mm 0 mps 579 mmHg 85%
    21:00 +8°C° 0.2 mm 0 mps 579 mmHg 85%
    22:00 +8°C° 0.2 mm 0 mps 579 mmHg 86%
    23:00 +7°C° 0 mm 0 mps 579 mmHg 86%

    25 August, Sunday

    Time Temperature Precipitation Wind Pressure Humidity
    00:00 +7°C° 0 mm 0 mps 578 mmHg 86%
    01:00 +8°C° 0 mm 1 mps 578 mmHg 86%
    02:00 +6°C° 0 mm 0 mps 578 mmHg 86%
    03:00 +6°C° 0 mm 0 mps 578 mmHg 86%
    04:00 +6°C° 0 mm 0 mps 578 mmHg 87%
    05:00 +7°C° 0 mm 0 mps 578 mmHg 83%
    06:00 +9°C° 0 mm 0 mps 579 mmHg 80%
    07:00 +10°C° 0 mm 0 mps 580 mmHg 77%
    08:00 +12°C° 0 mm 0 mps 581 mmHg 71%
    09:00 +13°C° 0 mm 0 mps 582 mmHg 66%
    10:00 +16°C° 0 mm 1 mps 582 mmHg 60%
    11:00 +16°C° 0.9 mm 1 mps 582 mmHg 60%
    12:00 +16°C° 0.9 mm 1 mps 582 mmHg 61%
    13:00 +17°C° 0.9 mm 2 mps 582 mmHg 61%
    14:00 +16°C° 1.5 mm 2 mps 582 mmHg 65%
    15:00 +16°C° 1.5 mm 2 mps 582 mmHg 68%
    16:00 +15°C° 1.5 mm 2 mps 581 mmHg 71%
    17:00 +14°C° 0.8 mm 1 mps 581 mmHg 77%
    18:00 +12°C° 0.8 mm 1 mps 580 mmHg 83%
    19:00 +11°C° 0.8 mm 1 mps 580 mmHg 88%
    20:00 +10°C° 0 mm 1 mps 579 mmHg 90%
    21:00 +9°C° 0 mm 1 mps 579 mmHg 92%
    22:00 +7°C° 0 mm 0 mps 579 mmHg 94%
    23:00 +6°C° 0 mm 0 mps 579 mmHg 94%
    Show more